weather.gov     
National Weather Service

Terminal Aerodrome Forecast
NWS Homepage
This page is being discontinued on March 12, 2014.
The same data is available at this site. Please update your bookmarks.
Thank you, and we apologize for the inconvenience.
Please send an email to SR-SRH.Webmaster@noaa.gov with any concerns.


Current Version
Previous Version:    01  02  03  04  05  06  07  08  09  10  11  12  13  14  15  16  17  18  19  20  21  22  23  
[Printable]
377
FTUS43 KICT 201728
TAFCNU
TAF
KCNU 201728Z 2018/2118 11010KT P6SM FEW250
     FM210500 09008KT P6SM OVC015
     FM210900 07008KT P6SM VCSH OVC007
     FM211300 09006KT P6SM -DZ VCSH OVC005=




377
FTUS43 KICT 201728
TAFCNU
TAF
KCNU 201728Z 2018/2118 11010KT P6SM FEW250
     FM210500 09008KT P6SM OVC015
     FM210900 07008KT P6SM VCSH OVC007
     FM211300 09006KT P6SM -DZ VCSH OVC005=


U.S. Dept. of Commerce
NOAA National Weather Service
1325 East West Highway
Silver Spring, MD 20910
E-mail: w-nws.webmaster@noaa.gov
Page last modified: May 16, 2007
NATIONAL WEATHER SERVICE: for Safety, for Work, for Fun - FOR LIFE